Weather History for KPLU - April, 2013

Change the Weather History Date:

Friday, April 12, 2013

  Actual Average (KTCM) Record (KTCM)
Temperature  
Mean Temperature 40 °F -  
Max Temperature 46 °F 55 °F 78 °F (2008)
Min Temperature 35 °F 36 °F 28 °F (2011)
Degree Days  
Heating Degree Days 24    
Moisture  
Dew Point 39 °F    
Average Humidity 91    
Maximum Humidity 100    
Minimum Humidity 71    
Precipitation  
Precipitation 0.30 in - - ()
Sea Level Pressure  
Sea Level Pressure 29.96 in    
Wind  
Wind Speed 1 mph (SW)    
Max Wind Speed 12 mph    
Max Gust Speed 22 mph    
Visibility 8 miles    
Events Rain    
Averages and records for this station are not official NWS values.
T = Trace of Precipitation, MM = Missing Value Source: NWS Daily Summary

Daily Weather History Graph

Daily Weather History Graph

Search for Another Location

Airport or City:

Trip Planner

Search our weather history database for the weather conditions in past years. The results will help you decide how hot, cold, wet, or windy it might be!

Date:

Astronomy

Apr. 12, 2013 Rise Set
Actual Time 6:26 AM PDT 7:54 PM PDT
Civil Twilight 5:54 AM PDT 8:26 PM PDT
Nautical Twilight 5:15 AM PDT 9:04 PM PDT
Astronomical Twilight 4:34 AM PDT 9:46 PM PDT
Moon 7:30 AM PDT (4/12) 10:40 PM PDT (4/12)
Length of Visible Light 14h 31m
Length of Day
13h 28m
Waxing Crescent, 6% of the Moon is Illuminated
Apr 12
Waxing Crescent
Apr 18
First Quarter
Apr 25
Full
May 2
Last Quarter
May 9
New

Hourly Weather History & Observations

Time (PDT) Temp. Windchill Dew Point Humidity Pressure Visibility Wind Dir Wind Speed Gust Speed Precip Events Conditions
12:15 AM 41.0 °F - 35.6 °F 81% 30.19 in 10.0 mi Calm Calm - N/A   Mostly Cloudy
12:55 AM 39.2 °F - 35.6 °F 87% 30.18 in 10.0 mi Calm Calm - N/A   Mostly Cloudy
1:15 AM 39.2 °F - 35.6 °F 87% 30.18 in 10.0 mi Calm Calm - N/A   Mostly Cloudy
1:35 AM 37.4 °F - 35.6 °F 93% 30.18 in 10.0 mi Calm Calm - N/A   Mostly Cloudy
2:15 AM 37.4 °F - 35.6 °F 93% 30.17 in 10.0 mi Calm Calm - N/A   Scattered Clouds
2:55 AM 39.2 °F - 35.6 °F 87% 30.16 in 10.0 mi Calm Calm - N/A   Scattered Clouds
3:15 AM 39.2 °F - 37.4 °F 93% 30.16 in 10.0 mi Calm Calm - N/A   Mostly Cloudy
3:35 AM 39.2 °F - 35.6 °F 87% 30.15 in 10.0 mi Calm Calm - N/A   Mostly Cloudy
3:55 AM 39.2 °F - 35.6 °F 87% 30.15 in 10.0 mi Calm Calm - N/A   Mostly Cloudy
4:15 AM 37.4 °F - 35.6 °F 93% 30.15 in 10.0 mi Calm Calm - N/A   Mostly Cloudy
4:35 AM 39.2 °F - 35.6 °F 87% 30.13 in 10.0 mi Calm Calm - N/A   Mostly Cloudy
4:55 AM 37.4 °F - 35.6 °F 93% 30.13 in 10.0 mi Calm Calm - N/A   Scattered Clouds
5:15 AM 37.4 °F - 35.6 °F 93% 30.11 in 10.0 mi Calm Calm - N/A   Mostly Cloudy
5:35 AM 35.6 °F - 35.6 °F 100% 30.10 in 10.0 mi Calm Calm - N/A   Partly Cloudy
5:55 AM 37.4 °F - 35.6 °F 93% 30.09 in 10.0 mi Calm Calm - N/A   Scattered Clouds
6:15 AM 35.6 °F - 35.6 °F 100% 30.08 in 10.0 mi Calm Calm - N/A   Scattered Clouds
6:35 AM 35.6 °F - 35.6 °F 100% 30.08 in 10.0 mi Calm Calm - N/A   Mostly Cloudy
6:55 AM 37.4 °F - 35.6 °F 93% 30.07 in 10.0 mi Calm Calm - N/A   Mostly Cloudy
7:15 AM 37.4 °F - 35.6 °F 93% 30.07 in 10.0 mi Calm Calm - N/A   Mostly Cloudy
7:35 AM 37.4 °F - 37.4 °F 100% 30.06 in 10.0 mi Calm Calm - N/A   Mostly Cloudy
7:55 AM 39.2 °F - 37.4 °F 93% 30.05 in 10.0 mi Calm Calm - N/A   Scattered Clouds
8:15 AM 39.2 °F - 37.4 °F 93% 30.05 in 10.0 mi Calm Calm - N/A   Clear
8:35 AM 41.0 °F - 37.4 °F 87% 30.04 in 10.0 mi Calm Calm - N/A   Clear
8:55 AM 41.0 °F - 37.4 °F 87% 30.04 in 10.0 mi Calm Calm - N/A   Clear
9:15 AM 41.0 °F - 35.6 °F 81% 30.04 in 10.0 mi Calm Calm - N/A   Partly Cloudy
9:35 AM 42.8 °F - 37.4 °F 81% 30.02 in 10.0 mi Calm Calm - N/A   Scattered Clouds
9:55 AM 44.6 °F - 37.4 °F 76% 30.02 in 10.0 mi Calm Calm - N/A   Scattered Clouds
10:15 AM 44.6 °F - 35.6 °F 71% 30.01 in 10.0 mi Calm Calm - N/A   Scattered Clouds
10:55 AM 44.6 °F - 37.4 °F 76% 30.00 in 10.0 mi Calm Calm - N/A   Mostly Cloudy
11:35 AM 46.4 °F - 37.4 °F 71% 29.99 in 10.0 mi Calm Calm - N/A   Scattered Clouds
11:55 AM 46.4 °F - 37.4 °F 71% 29.98 in 10.0 mi Calm Calm - N/A   Scattered Clouds
12:15 PM 46.4 °F - 37.4 °F 71% 29.98 in 10.0 mi Calm Calm - N/A   Scattered Clouds
12:55 PM 46.4 °F - 37.4 °F 71% 29.96 in 10.0 mi Calm Calm - N/A   Scattered Clouds
1:15 PM 46.4 °F - 37.4 °F 71% 29.95 in 10.0 mi Calm Calm - N/A   Scattered Clouds
1:35 PM 46.4 °F - 37.4 °F 71% 29.95 in 10.0 mi Calm Calm - N/A   Partly Cloudy
1:55 PM 46.4 °F - 39.2 °F 76% 29.94 in 8.0 mi Calm Calm - N/A Rain Light Rain
2:35 PM 44.6 °F 42.2 °F 41.0 °F 87% 29.94 in 3.0 mi WSW 4.6 mph - 0.03 in Rain Rain
2:55 PM 42.8 °F 41.1 °F 42.8 °F 100% 29.93 in 5.0 mi WSW 3.5 mph - 0.04 in Rain Light Rain
3:15 PM 42.8 °F - 42.8 °F 100% 29.91 in 4.0 mi Calm Calm - 0.02 in Rain Light Rain
3:35 PM 42.8 °F 39.3 °F 42.8 °F 100% 29.91 in 4.0 mi West 5.8 mph - 0.04 in Rain Light Rain
3:55 PM 42.8 °F - 42.8 °F 100% 29.90 in 4.0 mi Calm Calm - 0.07 in Rain Light Rain
4:15 PM 42.8 °F - 42.8 °F 100% 29.88 in 5.0 mi Calm Calm - 0.02 in   Overcast
4:35 PM 42.8 °F - 42.8 °F 100% 29.86 in 5.0 mi Calm Calm - 0.03 in Rain Light Rain
4:55 PM 42.8 °F - 42.8 °F 100% 29.85 in 5.0 mi Calm Calm - 0.05 in Rain Light Rain
5:15 PM 42.8 °F - 42.8 °F 100% 29.83 in 5.0 mi Calm Calm - 0.01 in Rain Light Rain
5:35 PM 42.8 °F - 42.8 °F 100% 29.83 in 5.0 mi Calm Calm - 0.02 in Rain Light Rain
5:55 PM 42.8 °F - 42.8 °F 100% 29.82 in 4.0 mi Calm Calm - 0.04 in Rain Light Rain
6:15 PM 42.8 °F - 42.8 °F 100% 29.81 in 4.0 mi Calm Calm - N/A Rain Light Rain
6:35 PM 42.8 °F - 42.8 °F 100% 29.80 in 3.0 mi Calm Calm - 0.01 in Rain Light Rain
6:55 PM 42.8 °F - 42.8 °F 100% 29.79 in 2.5 mi Calm Calm - 0.03 in Rain Light Rain
7:15 PM 42.8 °F - 42.8 °F 100% 29.78 in 2.0 mi Calm Calm - 0.01 in Rain Light Rain
7:35 PM 41.0 °F - 41.0 °F 100% 29.76 in 2.0 mi Calm Calm - 0.02 in Rain Light Rain
7:55 PM 41.0 °F - 41.0 °F 100% 29.76 in 3.0 mi Calm Calm - 0.03 in Rain Light Rain
8:15 PM 41.0 °F 38.0 °F 41.0 °F 100% 29.75 in 3.0 mi South 4.6 mph - 0.01 in Rain Light Rain
8:35 PM 41.0 °F 38.0 °F 41.0 °F 100% 29.75 in 3.0 mi SSW 4.6 mph - 0.01 in Rain Light Rain
8:55 PM 41.0 °F 37.1 °F 41.0 °F 100% 29.75 in 2.5 mi SSW 5.8 mph - 0.02 in Rain Light Rain
9:15 PM 42.8 °F 37.0 °F 42.8 °F 100% 29.75 in 3.0 mi South 10.4 mph 17.3 mph N/A Rain Light Rain
9:35 PM 44.6 °F 42.2 °F 44.6 °F 100% 29.75 in 5.0 mi SSW 4.6 mph - 0.02 in Rain Light Rain
9:55 PM 44.6 °F 42.2 °F 44.6 °F 100% 29.76 in 9.0 mi SSW 4.6 mph - 0.02 in   Mostly Cloudy
10:15 PM 44.6 °F 41.4 °F 44.6 °F 100% 29.77 in 10.0 mi SW 5.8 mph 21.9 mph N/A   Mostly Cloudy
10:35 PM 42.8 °F 36.6 °F 42.8 °F 100% 29.79 in 9.0 mi WSW 11.5 mph 19.6 mph N/A   Mostly Cloudy
11:15 PM 41.0 °F 35.2 °F 39.2 °F 93% 29.81 in 10.0 mi WSW 9.2 mph 21.9 mph N/A   Mostly Cloudy
11:55 PM 41.0 °F 36.4 °F 37.4 °F 87% 29.83 in 10.0 mi SW 6.9 mph - N/A   Mostly Cloudy